Location: Unspecified
(40.7945°N, 0.0000°E)
Time: 20:09:08
(UTC+00:00)

Tiros 1 despin weight - Visible Passes

Search period start: 21 January 2021 00:00
Search period end: 31 January 2021 00:00
Orbit: 594 x 641 km, 48.2° (Epoch: 20 January)

Date Brightness Start Highest point End Pass type
(mag) Time Alt. Az. Time Alt. Az. Time Alt. Az.
21 Jan ? 17:48:37 10° WNW 17:52:38 31° N 17:56:09 12° ENE visible
21 Jan ? 19:30:41 10° NW 19:33:12 29° NNW 19:33:12 29° NNW visible
22 Jan ? 18:05:20 10° WNW 18:09:21 31° N 18:11:58 18° NE visible
22 Jan ? 19:47:04 10° WNW 19:49:02 25° NW 19:49:02 25° NW visible
23 Jan ? 18:21:54 10° NW 18:26:02 36° NNE 18:27:50 25° ENE visible
23 Jan ? 20:03:27 10° WNW 20:04:54 20° WNW 20:04:54 20° WNW visible
24 Jan ? 18:38:19 10° NW 18:42:39 47° NNE 18:43:47 38° ENE visible
24 Jan ? 20:19:57 10° WNW 20:20:50 15° WNW 20:20:50 15° WNW visible
25 Jan ? 18:54:42 10° WNW 18:59:10 72° NNE 18:59:50 60° E visible
25 Jan ? 20:36:47 10° W 20:36:54 11° W 20:36:54 11° W visible
26 Jan ? 17:29:33 10° NW 17:33:48 39° NNE 17:37:59 10° E visible
26 Jan ? 19:11:07 10° WNW 19:15:33 68° SSW 19:16:00 62° S visible
27 Jan ? 17:45:58 10° WNW 17:50:23 55° NNE 17:54:44 10° E visible
27 Jan ? 19:27:43 10° WNW 19:31:48 36° SW 19:32:21 35° SSW visible
28 Jan ? 18:02:20 10° WNW 18:06:51 87° NNE 18:11:16 10° ESE visible
28 Jan ? 19:44:47 10° W 19:47:55 19° SW 19:48:54 18° SSW visible
29 Jan ? 18:18:49 10° WNW 18:23:10 53° SW 18:27:28 10° SE visible
30 Jan ? 18:35:33 10° W 18:39:22 28° SW 18:43:08 10° SSE visible
